This is the latest recevied weather packets stored in our database for station/object W8RSN-13. If no packets are shown the sender has not sent any weather packets the latest 1 day(s).
| Time | Temp. | Humidity | Pressure | Rain* | Wind** | Luminosity | Snow |
|---|---|---|---|---|---|---|---|
| 1778038471 | - | - | 1017.3 hPa | 0 mm | 0.45 m/s, 193° | - | - |
| 1778038170 | - | - | 1017.2 hPa | 0 mm | 0.89 m/s, 203° | - | - |
| 1778037869 | - | - | 1017.1 hPa | 0 mm | 0.45 m/s, 184° | - | - |
| 1778037568 | - | - | 1017.2 hPa | 0 mm | 0.45 m/s, 176° | - | - |
| 1778037267 | - | - | 1017 hPa | 0 mm | 0.45 m/s, 147° | - | - |
| 1778036966 | - | - | 1017 hPa | 0 mm | 1.79 m/s, 202° | - | - |
| 1778036665 | - | - | 1017 hPa | 0 mm | 1.79 m/s, 178° | - | - |
| 1778036364 | - | - | 1016.8 hPa | 0 mm | 0.89 m/s, 217° | - | - |
| 1778036063 | - | - | 1016.5 hPa | 0 mm | 0 m/s | - | - |
| 1778035763 | - | - | 1016.5 hPa | 0 mm | 0.45 m/s, 192° | - | - |
| 1778035462 | - | - | 1016.3 hPa | 0 mm | 2.24 m/s, 173° | - | - |
| 1778035161 | - | - | 1016.2 hPa | 0 mm | 1.34 m/s, 159° | - | - |
| 1778034859 | - | - | 1016.4 hPa | 0 mm | 1.34 m/s, 186° | - | - |
| 1778034559 | - | - | 1016.3 hPa | 0 mm | 0.89 m/s, 196° | - | - |
| 1778034258 | - | - | 1016.1 hPa | 0 mm | 0.89 m/s, 183° | - | - |
| 1778033957 | - | - | 1016.2 hPa | 0 mm | 0.89 m/s, 187° | - | - |
| 1778033656 | - | - | 1016.1 hPa | 0 mm | 0.45 m/s, 194° | - | - |
| 1778033375 | - | - | 1015.9 hPa | 0 mm | 0.89 m/s, 175° | - | - |
| 1778033075 | - | - | 1016.1 hPa | 0 mm | 1.34 m/s, 195° | - | - |
| 1778032774 | - | - | 1016 hPa | 0 mm | 1.34 m/s, 199° | - | - |
| 1778032473 | - | - | 1016 hPa | 0 mm | 1.79 m/s, 193° | - | - |
| 1778032172 | - | - | 1016 hPa | 0 mm | 0.45 m/s, 194° | - | - |
| 1778031871 | - | - | 1015.8 hPa | 0 mm | 1.34 m/s, 195° | - | - |
| 1778031570 | - | - | 1015.7 hPa | 0 mm | 1.79 m/s, 201° | - | - |
| 1778031269 | - | - | 1015.3 hPa | 0 mm | 0.45 m/s, 175° | - | - |
* Rain latest hour (hover to see other rain measurements)
** Current wind speed in m/s (hover to see current wind gust speed)